Location: Unspecified
(42.2730°N, 83.7130°W)
Time: 14:26:37
(UTC+00:00)

Cosmos 2322 Rocket - Pass Details

Date: 14 December 2025
Orbit: 831 x 850 km, 71.0° (Epoch: 17 January)

Event Time Altitude Azimuth Distance (km) Brightness Sun altitude
Exits shadow 12:04:08 11° 301° (WNW) 2,373 3.9 -9.4°
Maximum altitude 12:07:34 19° 261° (W) 1,906 3.6 -8.8°
Drops below altitude 10° 12:11:24 10° 217° (SW) 2,456 4.5 -8.2°
Sets 12:14:31 0° 200° (SSW) 3,382 5.4 -7.7°
